Location: Goll?ig?dem
(16.6773°N, 80.7332°E)
Time: 06:58:06
(UTC+00:00)

Cosmos 371 Rocket - Pass Details

Date: 21 April 2021
Orbit: 683 x 699 km, 74.0° (Epoch: 06 May)

Event Time Altitude Azimuth Distance (km) Brightness Sun altitude
Rises 23:39:29 0° 190° (S) 3,036 6.3 -9.6°
Reaches altitude 10° 23:41:46 10° 189° (S) 2,123 5.6 -9.1°
Maximum altitude 23:46:33 80° 103° (ESE) 701 3.4 -8.0°
Drops below altitude 10° 23:51:22 10° 16° (NNE) 2,137 6.3 -6.8°
Sets 23:53:41 0° 16° (NNE) 3,057 7.1 -6.3°
